Погода в Елабуге

Погода в Елабуге : погода сейчас, прогноз погоды и архив. Всё, что Вы хотите узнать о погоде в Елабуге!

Поиск расширенной информации на нашем сайте:

Другие новости

Новости СМИ2

Главная страница сайта

Новости сайта

03.07.2017

Напоминаем, что на нашем специализированном сайте Метеоцентр.Азия вы можете получить высокодетализированные автоматические прогнозы погоды по пунктам России, СНГ и мира в авиационном формате (включающие направление и скорость ветра, видимость, явления погоды, количество и форму облачности, нижнюю и верхнюю границу облачности).


Погода в Елабуге - сегодня

Время (UTC), дата Ветер
(°,м/с) 
Видим.   Явления Облачность Т
(°С)
Тd
(°С)
f(%) Тe
(°С)
Pmin
(гПа)
dP
(гПа)
Po
(мм)
O2
(г/м3)
Тmin Tmax R s Состояние
почвы
00 19.09.17 тихо ()   10 км    5/0 средняя 
[Ac As]
+9.9 +8.1 89 +10  1014.4  -1.5  753  291           
03 19.09.17 тихо ()   10 км    3/0 верхняя 
[Ci fib]
+9.4 +7.8 90 +9  1013.9  -0.5  752  292  +8.9        влажная 
06 19.09.17 210 (ЮЗ) 10 км    3/0 верхняя 
[Ci fib]
+21.2 +9.6 47 +22  1012.8  -0.6  752  279           
09 19.09.17 230 (ЮЗ) 5-10{10}  10 км    4/0 верхняя 
[Ci fib]
+27 +8.8 32 +27  1011  -1.6  751  274           
12 19.09.17 240 (ЮЗ) 5-10{11}  10 км    6/0 средняя 
[Ac lent]
+27.6 +8 29 +28  1010.4  -0.6  750  273           
15 19.09.17 260 (З) 3{11}  10 км    6/0 средняя 
[Ac lent]
+23.4 +10.8 45 +26  1011.2  0.6  751  277    +28.6       
18 19.09.17 250 (З) 10 км    4/0 средняя 
[Ac lent]
+20.5 +9.4 49 +21  1012.5  1.2  752  280           
21 19.09.17 250 (З) 10 км    3/0 верхняя 
[Ci fib]
+16.4 +7.6 56 +17  1014.4  1.7  753  285           
00 20.09.17 260 (З) 10 км    ясно 
+13.2 +7 66 +13  1016.2  1.7  754  289           
03 20.09.17 260 (З) 10 км    ясно 
+11.2 +6.6 73 +11  1017.8  1.5  755  291  +10.5        сухая 
06 20.09.17 270 (З) 10 км    3/0 верхняя 
[Cs]
+15 +7.5 61 +15  1019.2  1.5  756  288           
09 20.09.17 290 (З) 10 км    6/4 600 м верхняя 
[Cu hum|Cs]
+17.3 +6.8 50 +18  1019.5  0.4  757  286           
12 20.09.17 290 (З) 10 км    3/3 600 м 
[Cu hum]
+17.5 +6.9 50 +18  1020.1  0.6  757  286           
15 20.09.17 360 (С) 10 км    8/0 средняя 
[Ac As]
+13.6 +7.5 67 +15  1021.7  1.4  758  290    +18.1       
18 20.09.17 280 (З) 10 км    9/0 средняя 
[Ac As]
+12.8 +7.2 69 +14  1022.6  0.9  759  291           
21 20.09.17 290 (З) 10 км    9/0 средняя 
[Ac As]
+12.1 +7.3 72 +13  1023  0.3  759  292           
00 21.09.17 310 (СЗ) 10 км    10/4 600 м средняя 
[Sc|Ac As]
+11.8 +6.9 72 +13  1023.7  0.7  760  292           
03 21.09.17 300 (СЗ) 10 км    9/9 600 м 
[Sc]
+11.3 +7.7 78 +12  1024.8  760  293  +11.3        сухая 
06 21.09.17 300 (СЗ) 10 км    10/10 600 м 
[Sc]
+12.6 +6.6 67 +12  1025.7  761  292           
09 21.09.17 300 (СЗ) 10 км    10/10 600 м 
[Sc]
+13.5 +7 65 +14  1025.9  0.2  761  291           
12 21.09.17 350 (С) 10 км    10/10 600 м 
[Sc]
+13 +6.1 63 +13  1026.6  0.6  762  292           
15 21.09.17 020 (С) 10 км    10/10 600 м 
[Sc]
+9.1 +2.8 65 +9  1028.1  1.4  763  297    +14.3       
18 21.09.17 350 (С) 10 км    10/10 600 м 
[Sc]
+8.1 +2.4 67 +8  1029.2  764  298           
21 21.09.17 350 (С) 10 км    10/10 600 м 
[Sc]
+6.8 +3.7 81 +6  1029.8  0.6  764  300           
00 22.09.17 350 (С) 10 км    10/10 600 м 
[Sc]
+7.6 +4.8 82 +7  1030.5  0.7  764  299           
Время (UTC), дата Ветер
(°,м/с) 
Видим.   Явления Облачность Т
(°С)
Тd
(°С)
f(%) Тe
(°С)
Pmin
(гПа)
dP
(гПа)
Po
(мм)
O2
(г/м3)
Тmin Tmax R s Состояние
почвы

Для получения пояснительной информации подведите курсор к названию столбца.

ПОГОДА в Елабуге - архив

Всё, что Вы хотите узнать о погоде в Елабуге - удобно и подробно!

Выберите нужную дату (начиная с 1 января 2015* года) и нажмите кнопку "Найти".
Будут отображены архивные сводки погоды по пункту Елабуга, начиная с указанной даты.


Отображать данные в формате CSV (для использования в таблицах Excel)


Внимание! Наш архив погоды предназначен исключительно для личного некоммерческого использования в познавательных целях. Если Вам необходимы официальные справки о состоянии погоды (для производственных, юридических, коммерческих и т.п. целей), обращайтесь в органы Росгидромета.

*Примечание: данная дата относится к архиву по метеостанциям СССР (Россия, СНГ, Балтия).
Архив по метеостанциям Зарубежной Европы и Азии (кроме Китая) хранится 10 дней, по другим регионам земного шара (Китай, Африка, Америка, Австралия, Океания) - 1 день.

Елабуга - район местоположения метеостанции


Название, широта, долгота, высота метеостанции:
Елабуга 55.7°ш. 52.1°д. 90 м над ур. моря [Российская Федерация]

Дополнительная информация

В oтличие oт бoльшинства пoгoдных сайтoв мы публикуем пoдрoбную метеoинфoрмацию в детальнoм прoфессиoнальнoм фoрмате.

Характеристики температуры и влажнoсти вoздуха измеряются на высoте 2 м в тени вдали oт зданий и деревьев.
Скoрoсть ветра измеряется на высoте 10 м (на урoвне рoста челoвека скoрoсть ветра ниже в 1.5-2 раза). Если метеoстанция нахoдится в гoрoде или в лесу, тo скoрoсть ветра занижена на 2-4 м/с пo сравнению с oткрытым местoм. Скoрoсть ветра над акватoриями крупных рек и oзёр, а также на вершинах хoлмoв на 2-5 м/с выше, чем в oбычных услoвиях.
Атмoсфернoе давление в разных тoчках местнoсти мoжет значительнo oтличаться oт давления на метеoстанции, в зависимoсти oт услoвий рельефа (при пoдъёме на 10 м давление пoнижается примернo на 1 мм рт.ст.).